Miscellaneous Local Product
Issued by NWS North Platte, NE

Home | Current Version | Previous Version | Text Only | Print | Product List | Glossary On
Versions: 1 2 3 4 5 6 7 8 9 10 11 12 13 14 15 16 17 18 19 20 21 22 23 24 25 26 27 28 29 30 31 32 33 34 35 36 37 38 39 40 41 42 43 44 45 46 47 48 49 50
000
AXUS43 KLBF 241610
MISLBF


WESTERN AND NORTH CENTRAL NEBRASKA HOURLY WEATHER ROUNDUP
NATIONAL WEATHER SERVICE NORTH PLATTE NE
1100 AM CDT MON JUL 24 2017

NOTE: "FAIR" INDICATES FEW OR NO CLOUDS BELOW 12,000 FEET WITH NO
SIGNIFICANT WEATHER AND/OR OBSTRUCTIONS TO VISIBILITY.

NOTE: STATIONS NOT REPORTING VARIABLES SUCH AS SKY/WEATHER OR
PRESSURE ARE PROVIDED BY RAWS AND APRS NETWORKS AND ARE NOT UNDER
NATIONAL WEATHER SERVICE QUALITY CONTROL.

...OBSERVATIONS IN AND NEAR THE EASTERN PANHANDLE OF NEBRASKA...

CITY           SKY/WX    TMP DP  RH WIND       PRES   REMARKS
PINE RIDGE     SUNNY     88  63  43 S20G25    29.89F
GORDON         FAIR      84  63  48 SW17G25   29.92F
CHADRON        SUNNY     90  56  31 SW13      29.87F
ALLIANCE       SUNNY     88  58  36 SW17G25   29.97F
SIDNEY         SUNNY     85  60  42 S16       30.04F
CRESCENT LAKE    N/A     85  62  45 S13G24      N/A
$$

...OBSERVATIONS IN NORTHERN NEBRASKA AND FAR SOUTHERN SOUTH DAKOTA...

CITY           SKY/WX    TMP DP  RH WIND       PRES   REMARKS
WINNER         FAIR      85  61  44 S25G33    29.89F
VALENTINE      SUNNY     86  60  41 S15       29.92F
THEDFORD       SUNNY     85  64  48 SW13G20   29.98F
AINSWORTH      SUNNY     83  63  49 S17G23    29.95F
O`NEILL        SUNNY     79  64  60 S15       30.00F
ORD            SUNNY     81  62  52 SE14      29.99F
BROKEN BOW     SUNNY     82  65  56 S13       30.00F
VALENTINE NWR    N/A     80  63  56 S14         N/A
HALSEY           N/A     82  63  52 S8G16       N/A
BUTTE            N/A     78  64  61 S12         N/A
CHAMBERS         N/A     83  65  54 MISG        N/A
EWING            N/A     79  66  64 S6          N/A
$$

...OBSERVATIONS IN SOUTHWEST NEBRASKA AND FAR NORTHEAST COLORADO...

CITY           SKY/WX    TMP DP  RH WIND       PRES   REMARKS
HOLYOKE        FAIR      86  63  45 S17G23    30.02F
IMPERIAL       SUNNY     88  62  41 SW15G21   30.02F
OGALLALA       SUNNY     89  63  41 S15G21    29.99F
NORTH PLATTE   SUNNY     84  66  54 SW7       29.99F
MCCOOK         SUNNY     86  66  51 VRB5      30.00F
LEXINGTON      SUNNY     80  68  67 SE10      30.01F
STAPLETON        N/A     83  67  58 CALM        N/A
GOTHENBURG       N/A     78  62  57 S6          N/A
CALLAWAY         N/A     78  70  77 S12         N/A
$$

...OBSERVATIONS IN CENTRAL LINCOLN COUNTY AREA...

CITY           SKY/WX    TMP DP  RH WIND       PRES   REMARKS
N.P. AIRPORT   SUNNY     84  66  54 SW7       29.99F
N.P. DOWNTOWN    N/A     86  67  52 CALM        N/A
N.P. SOUTHEAST   N/A     85  67  55 CALM        N/A
N.P. HILLCREST   N/A     83  68  59 S6          N/A
$$

...SOME OBSERVATIONS FROM AROUND THE REGION...

CITY           SKY/WX    TMP DP  RH WIND       PRES   REMARKS
DENVER         MOSUNNY   85  48  27 W8        30.09F
LIMON          SUNNY     79  60  52 S16G22    30.14F
ASPEN          SUNNY     73  46  38 N9        30.32F
LARAMIE        SUNNY     75  38  26 CALM      30.24F
CASPER         SUNNY     85  34  16 SW18G24   30.07F
CHEYENNE       SUNNY     85  41  21 VRB5      30.14F
SCOTTSBLUFF    SUNNY     86  58  38 S6        29.96F
GRAND ISLAND   SUNNY     79  66  64 SE12      30.02F
OMAHA          MOSUNNY   77  61  57 SE6       30.03F
SIOUX FALLS    PTSUNNY   73  63  70 SE13      30.01F
PIERRE         CLOUDY    83  59  44 SE23      29.82F
RAPID CITY     SUNNY     83  55  38 VRB3      29.87F
BISMARCK       CLOUDY    74  62  66 SE13      29.84F
KANSAS CITY    PTSUNNY   79  65  62 E5        30.03S
HILL CITY      SUNNY     86  67  52 SE6       30.02F
WICHITA        SUNNY     89  69  51 CALM      29.99S HX  93
DODGE CITY     SUNNY     87  63  44 S7        30.05F
OKLAHOMA CITY  SUNNY     87  67  51 VRB6      30.00S HX  90
DALLAS         CLOUDY    81  74  79 S5        30.00R
AMARILLO       SUNNY     85  64  49 VRB5      30.09F
$$




USA.gov is the U.S. government's official web portal to all federal, state and local government web resources and services.